Theta_e
324 323 321 320 321 322 323 327 327 330 331 332 333 330 332 329 331 342 347 346 347 348 349 351 352 351 354 353 356 357 355 356 356 353 351 351 353 351 349 348 348 348 347 346 345 344 345 344 343 343 344 344 343 345 345 344 345 344 346 348 348 349 346 339 339 340 339 341 349 352 349 351 353 351 351 352 352 351 350 346 343 344 344 343 344 344
324 322 321 322 322 323 324 326 326 329 329 331 331 329 330 330 331 343 348 345 346 348 347 350 351 350 353 352 355 357 355 357 357 355 353 353 353 353 353 350 348 349 347 347 346 345 345 345 345 344 345 345 344 346 344 345 345 344 346 348 347 348 342 337 337 341 344 344 349 351 348 350 351 352 352 352 352 352 351 347 345 345 344 344 345 344
323 323 323 323 324 324 325 325 325 327 327 329 329 328 328 328 334 344 349 346 344 347 347 347 351 350 351 351 355 357 356 357 356 354 354 354 353 353 353 352 349 348 347 347 347 346 345 345 345 345 345 346 345 347 345 345 346 345 347 347 349 348 340 337 334 338 347 348 349 351 348 348 349 350 351 352 352 352 351 345 344 345 344 345 345 344
321 322 324 326 325 324 325 325 325 326 327 329 329 328 327 330 332 334 344 349 344 343 345 346 348 349 349 349 353 354 355 357 354 353 355 355 354 352 352 352 351 348 347 348 347 347 346 345 347 344 345 346 345 348 346 346 347 346 348 347 347 346 339 338 334 335 347 349 348 350 348 348 348 348 350 350 352 353 351 346 343 344 344 347 346 345
323 324 325 326 325 325 324 324 325 325 325 328 331 329 330 333 332 331 337 345 344 341 343 344 340 342 348 350 351 350 353 357 354 355 357 355 355 354 352 352 353 349 347 348 347 348 347 346 347 346 345 346 346 348 347 347 347 347 350 347 346 346 341 340 335 336 348 349 348 350 348 349 349 348 349 350 352 353 352 350 346 343 342 346 348 347
325 326 326 325 325 326 324 325 325 323 323 326 331 333 333 334 335 335 333 333 332 333 340 342 333 335 345 349 350 347 350 355 355 357 357 355 354 354 353 353 355 353 349 349 348 348 349 347 348 347 347 346 346 349 348 348 346 346 350 347 346 347 342 342 338 337 347 348 347 349 348 350 350 348 349 351 352 352 351 351 350 347 344 346 347 347
324 326 326 325 325 326 324 325 326 325 323 323 329 333 335 336 334 334 333 328 323 328 342 341 333 332 339 343 349 348 350 352 353 355 357 354 353 353 355 353 354 355 352 350 349 348 348 347 348 349 348 347 347 349 348 348 346 346 349 346 344 344 342 342 339 336 341 340 341 345 347 351 351 349 350 351 352 351 349 349 351 350 349 347 348 348
325 326 325 325 325 325 324 323 326 327 323 324 330 333 333 334 333 333 331 328 325 329 336 336 335 333 334 340 347 349 350 350 351 354 355 355 353 353 355 355 354 356 354 353 350 349 348 347 348 349 350 348 348 350 348 348 347 346 348 345 340 340 341 340 335 335 337 333 334 337 343 351 351 350 351 350 350 349 347 349 351 352 352 350 349 349
326 325 325 325 325 324 324 324 328 329 326 328 330 331 331 331 332 334 331 328 329 327 325 330 331 330 333 344 348 350 350 348 349 354 354 355 353 353 356 356 357 356 355 355 354 351 349 347 348 349 350 349 350 350 349 348 348 347 348 346 341 337 340 341 335 334 335 332 332 333 341 350 351 350 351 350 349 350 349 350 351 353 353 350 348 348
326 324 326 326 325 324 324 326 330 330 329 329 329 329 329 329 330 334 333 328 327 324 321 326 326 327 334 344 346 348 349 347 349 353 354 354 351 353 355 355 356 356 356 356 355 353 350 348 348 349 350 349 349 351 350 349 349 349 348 347 345 337 338 342 337 333 334 334 333 333 342 350 349 349 352 349 348 349 351 351 352 353 353 350 347 346
325 325 327 326 327 328 327 328 329 330 329 328 330 331 328 329 331 333 334 328 325 323 322 326 324 328 336 341 343 347 348 347 350 351 352 354 354 355 356 355 356 357 357 357 355 354 352 350 349 349 350 349 349 351 352 350 348 350 350 349 348 341 337 341 338 334 335 336 334 333 342 350 350 349 351 350 348 348 349 352 354 352 350 350 349 348
326 326 328 328 329 329 328 329 329 330 329 328 331 330 325 326 327 326 328 326 323 322 323 327 325 328 335 340 342 346 347 346 347 349 350 351 354 356 356 355 356 357 357 356 356 357 356 352 350 350 352 351 351 352 352 351 349 350 351 351 350 346 342 340 336 334 336 336 335 333 339 349 352 350 351 352 350 348 346 349 354 351 348 352 354 352
326 327 327 328 328 329 327 327 327 329 328 328 329 327 323 322 322 322 322 322 322 322 324 328 325 328 335 341 343 345 346 346 347 347 349 350 351 354 355 356 357 357 357 357 358 359 357 355 352 351 353 353 352 352 353 352 351 352 352 353 352 348 346 343 337 333 335 336 336 335 336 342 346 350 353 353 352 349 344 344 350 350 348 351 354 354
322 326 327 327 328 328 327 324 324 327 328 327 325 323 322 321 321 321 320 320 321 321 324 327 325 331 338 344 344 345 344 344 347 346 348 351 352 353 354 354 356 357 357 356 357 357 356 355 354 352 352 352 352 352 353 353 353 355 355 354 353 350 346 345 340 332 333 335 336 336 335 335 338 346 353 354 352 349 344 341 345 347 347 348 352 354
318 321 325 325 327 327 327 326 326 327 329 328 329 327 323 321 321 320 319 320 320 320 322 323 325 332 338 343 343 345 344 345 345 344 347 350 352 353 353 353 355 356 356 356 355 353 354 353 353 354 353 352 353 353 354 354 353 354 356 356 355 352 347 345 342 334 333 335 336 337 337 335 335 338 347 353 353 350 344 342 343 345 348 348 350 352
317 319 324 325 326 328 327 328 330 328 327 328 330 326 323 324 324 320 319 319 319 318 319 322 329 336 341 342 342 343 343 344 344 345 347 349 351 351 352 354 354 355 356 356 354 352 353 353 354 356 354 353 354 354 354 354 353 353 356 357 357 356 353 349 345 340 337 336 336 337 338 337 336 336 340 347 350 350 345 345 346 346 349 352 351 350
316 318 325 326 326 328 327 329 330 329 327 327 326 323 325 330 327 320 319 319 319 317 318 326 333 337 340 342 342 341 342 342 342 344 345 348 350 350 351 353 353 353 354 353 353 353 353 354 355 355 355 354 355 355 354 353 353 354 355 357 357 358 357 354 349 344 341 339 338 338 338 337 336 336 338 342 347 349 347 348 350 348 348 351 352 352
319 318 325 326 324 325 327 328 329 329 329 325 323 325 328 329 327 324 320 319 319 316 318 330 334 334 337 340 342 341 342 341 340 342 343 344 347 347 348 349 350 351 351 351 353 353 354 355 355 355 355 355 356 355 353 351 352 353 353 357 357 355 358 357 353 350 346 343 341 339 337 338 338 337 338 345 348 348 349 350 350 350 349 348 351 354
321 318 321 325 324 323 326 325 324 328 330 326 325 327 326 322 321 323 320 319 319 316 320 332 334 332 334 337 341 342 342 340 340 341 342 343 344 345 346 346 347 349 350 351 352 352 353 354 354 355 356 355 355 355 354 353 353 352 350 354 354 352 355 356 354 355 352 349 347 345 342 341 342 340 342 348 351 350 350 352 351 351 350 347 349 353
322 318 317 321 323 322 323 322 320 322 326 326 326 325 325 322 321 322 321 321 320 317 321 332 335 333 336 341 343 342 342 340 341 341 341 342 342 343 344 343 346 349 349 350 351 351 353 354 354 354 354 354 355 355 356 354 353 353 352 353 353 352 354 354 354 357 357 356 354 353 350 349 346 345 346 350 351 350 351 352 352 351 352 350 350 351
323 321 317 320 322 321 319 320 320 321 324 324 322 321 322 323 323 324 322 321 321 319 321 330 337 339 341 344 343 342 341 340 340 341 341 342 342 341 342 342 344 347 348 348 349 348 350 353 354 354 352 354 356 357 355 354 354 354 353 353 354 354 355 355 355 355 357 359 356 353 353 354 353 351 351 351 350 350 351 351 351 352 352 351 350 351
322 322 319 318 318 317 319 322 322 322 323 324 322 321 322 323 321 321 320 320 321 320 320 329 338 341 342 341 341 339 340 339 339 340 340 341 341 340 341 342 342 345 347 346 347 345 346 348 351 352 353 355 357 357 354 353 354 354 353 354 355 355 354 354 354 354 354 356 354 353 353 353 354 354 355 353 351 350 351 351 350 351 351 351 351 351
321 322 320 318 319 320 321 323 321 322 324 323 323 324 325 325 321 318 317 319 318 319 324 333 340 343 342 339 341 339 339 340 339 340 340 340 340 340 340 341 341 343 343 344 344 344 344 345 346 349 350 353 356 356 354 353 355 354 354 353 353 354 353 353 353 353 353 354 353 354 355 353 353 354 355 354 352 351 350 351 350 351 351 351 350 350
320 321 320 319 321 322 322 323 322 323 323 322 322 324 324 324 324 321 321 324 320 319 327 334 340 343 340 339 341 339 339 340 339 339 339 339 339 339 339 339 339 340 340 341 342 343 343 343 344 345 345 349 353 355 355 355 354 354 353 353 352 352 353 354 353 353 353 353 353 354 356 355 353 355 356 355 352 351 350 350 351 351 350 350 350 349
320 321 320 318 319 319 319 320 320 321 321 321 322 324 324 324 325 324 324 326 322 320 326 333 339 342 339 339 340 338 339 339 339 339 338 339 339 338 338 338 337 337 339 340 340 340 340 340 342 343 343 345 348 352 354 354 353 353 352 352 352 352 353 353 353 353 353 353 355 355 356 356 356 356 357 355 352 351 350 349 349 350 351 350 349 349
321 323 322 320 319 319 320 320 319 318 319 321 321 322 324 323 324 323 322 322 320 321 327 333 337 340 339 339 338 337 338 338 338 338 338 337 338 337 337 336 335 336 336 337 337 337 337 338 338 339 340 341 343 347 351 353 352 352 352 352 352 351 352 352 352 352 352 351 353 355 356 357 357 356 357 357 354 351 350 348 348 348 349 350 349 348
321 324 325 324 322 321 322 323 325 321 319 318 320 322 323 323 325 323 320 321 321 323 331 337 338 338 339 338 338 337 337 337 337 337 337 337 336 336 335 336 335 335 334 334 334 335 335 335 336 336 337 338 340 342 345 349 351 352 352 352 352 352 351 351 352 352 352 349 351 353 354 355 356 356 356 358 356 354 352 350 348 347 347 348 349 348
321 321 323 326 324 322 322 323 324 323 320 319 319 321 322 322 324 322 319 322 324 324 331 341 341 337 337 338 337 337 336 336 337 337 335 335 334 334 333 334 335 334 333 333 332 332 333 333 333 333 334 335 337 339 341 343 347 350 352 351 351 351 351 351 351 352 352 351 352 353 353 354 353 354 355 356 356 356 354 351 348 347 346 346 347 348
321 320 321 322 321 322 321 321 322 322 321 321 320 320 321 321 322 321 321 325 324 324 331 342 340 337 339 338 337 337 336 336 335 335 333 333 333 333 333 331 331 332 332 331 330 330 330 331 330 331 331 332 334 338 340 340 342 345 348 349 349 350 350 350 351 352 352 352 352 352 353 353 353 353 355 356 356 356 356 353 349 348 346 345 346 347
319 319 321 321 319 320 321 320 320 321 320 320 321 321 321 321 321 321 322 323 324 330 338 341 339 339 338 337 337 336 335 334 333 333 332 331 331 331 330 330 330 329 329 329 329 329 328 328 328 328 329 330 331 334 338 339 341 343 344 344 346 348 349 349 350 351 351 351 351 352 352 352 353 353 354 356 356 357 357 354 351 349 347 345 346 346
318 319 322 321 318 318 320 319 319 320 319 319 320 321 320 320 320 321 323 323 325 332 337 338 339 340 339 336 336 335 333 333 332 331 332 330 330 329 329 329 328 328 328 327 328 327 326 327 327 326 326 327 326 328 331 334 336 340 343 344 344 346 347 347 348 349 349 350 351 351 351 351 352 352 352 354 354 354 354 354 353 352 350 349 348 346
319 319 321 320 317 317 318 319 318 318 319 317 318 320 319 318 320 320 322 324 324 329 334 337 337 338 338 336 335 333 333 333 331 331 331 330 329 329 328 327 327 327 327 326 326 326 325 325 325 325 325 325 324 324 325 327 328 331 336 341 342 344 346 345 346 347 348 350 351 351 351 351 351 352 352 353 352 352 353 354 355 354 352 351 351 349
319 319 320 319 316 316 317 319 318 317 316 316 317 320 320 319 320 320 322 324 323 327 335 337 336 337 337 335 333 332 332 332 331 330 330 329 329 328 327 326 326 326 326 326 325 325 325 324 324 324 325 325 324 323 322 324 324 325 329 333 334 337 342 344 344 346 347 348 349 350 351 350 351 352 352 352 351 351 353 355 355 355 353 352 352 351
321 320 320 320 317 316 317 318 318 316 315 316 320 323 322 320 320 320 322 325 326 329 334 336 336 336 335 333 333 333 332 331 331 330 329 329 328 327 326 326 325 325 325 324 324 325 324 324 322 323 324 324 324 324 322 322 323 323 325 327 326 329 335 338 339 341 344 346 347 347 348 349 350 351 352 352 351 352 353 354 355 355 354 354 352 352
322 320 319 320 317 316 317 318 317 316 317 321 324 324 324 324 323 323 325 327 327 331 334 335 334 334 334 333 332 332 331 330 330 329 329 328 328 327 326 325 324 324 324 323 324 324 323 323 321 321 323 323 324 323 320 320 322 322 323 324 322 324 331 334 335 335 335 339 343 343 344 346 346 348 350 350 351 352 352 352 353 353 353 353 353 352
321 321 320 319 318 318 318 317 318 319 321 324 324 323 323 325 324 325 326 326 327 329 332 334 333 333 333 332 332 331 330 329 329 328 327 326 326 325 325 324 324 323 322 322 322 322 322 322 320 320 321 322 324 323 319 319 321 322 323 322 320 321 327 332 334 332 326 329 335 337 338 340 342 344 347 348 349 351 350 351 351 351 352 353 353 353
318 320 321 321 320 318 316 316 320 322 322 323 325 324 323 324 324 324 324 325 326 328 331 332 332 332 332 331 330 330 329 328 328 328 326 324 323 323 323 323 322 322 321 321 320 321 322 320 319 320 320 321 322 321 319 320 321 321 323 323 321 321 323 326 329 325 318 319 326 327 330 334 336 337 341 345 347 348 349 350 350 350 352 353 352 352
317 319 321 321 320 318 316 316 318 320 319 321 324 324 323 323 324 324 323 324 326 328 329 331 330 330 330 329 330 329 328 328 328 327 325 323 322 321 321 321 321 321 320 319 319 320 319 317 317 319 319 320 321 320 319 320 320 321 323 323 321 322 322 323 324 319 314 314 316 318 323 327 329 329 332 336 342 346 346 348 348 349 351 352 354 353
317 317 318 318 318 318 317 316 316 318 321 323 324 324 323 323 323 322 321 322 326 327 328 329 329 329 328 328 328 328 327 327 327 327 325 322 321 322 321 320 320 319 318 318 318 318 317 316 317 318 318 319 319 318 318 319 320 322 323 321 319 321 323 323 322 318 314 313 313 314 316 320 323 326 327 329 336 342 345 346 348 349 350 351 352 353
317 316 315 314 314 316 317 315 316 321 325 326 323 322 320 321 321 319 317 319 324 327 326 327 327 326 326 326 326 326 326 325 326 325 323 321 321 321 320 319 318 318 317 317 317 315 315 316 317 317 317 317 317 317 318 319 320 321 321 318 319 322 324 323 322 317 314 313 313 313 314 314 316 320 322 324 328 334 340 344 346 349 350 351 351 352
318 317 315 314 313 314 315 314 317 323 326 324 321 319 318 318 317 317 318 321 325 326 325 325 325 324 324 324 324 324 325 325 324 323 321 320 320 319 318 318 317 316 316 316 315 315 315 316 316 316 316 316 316 316 317 318 319 320 319 318 320 322 321 319 317 315 313 313 312 312 313 313 314 314 316 319 321 324 330 335 337 340 344 346 348 349
318 317 316 315 314 314 315 313 316 323 326 322 319 319 317 316 317 319 323 324 324 323 324 324 323 323 323 323 323 323 323 322 322 321 319 318 318 318 317 317 317 317 316 316 315 315 315 315 315 316 316 315 315 316 317 317 318 317 315 316 319 321 321 319 316 314 313 312 311 312 312 312 313 314 314 315 316 318 321 323 325 328 330 332 335 338
318 317 316 316 315 315 315 313 315 321 324 321 320 319 317 317 321 324 325 324 322 322 323 322 322 322 322 322 321 321 320 320 320 319 318 317 317 317 317 317 317 317 316 316 315 316 316 315 315 315 315 315 315 316 316 316 316 315 316 318 320 321 321 319 316 313 311 311 311 311 311 311 312 312 313 313 314 315 316 318 320 322 323 324 325 325
317 315 315 317 316 315 315 316 317 321 323 321 320 320 319 320 323 324 323 322 321 321 322 321 320 321 321 320 320 320 319 319 318 318 317 316 316 316 317 317 317 317 317 316 316 316 316 315 314 313 314 315 316 314 313 314 316 318 320 321 319 316 315 314 313 313 313 313 313 312 310 310 311 311 312 313 313 314 316 317 318 319 319 320 321 321
316 317 318 320 319 317 318 319 320 321 322 321 320 321 321 322 322 322 321 321 320 319 320 320 319 319 319 319 319 318 318 318 317 316 316 316 316 317 317 317 318 318 318 317 317 317 316 315 314 313 312 313 313 312 312 312 314 317 318 316 313 311 310 311 312 314 313 312 312 311 310 310 310 310 311 312 312 313 315 315 315 316 317 318 321 325
317 318 320 320 319 318 318 320 321 322 321 320 320 322 322 321 321 320 320 320 319 318 318 319 319 318 318 317 317 317 317 317 317 316 316 316 317 317 317 317 317 317 317 317 317 317 316 316 315 315 314 311 310 310 312 311 311 311 311 309 308 308 309 309 309 310 310 311 312 312 312 312 312 312 313 313 312 312 312 313 314 315 318 321 328 334
320 319 319 318 317 317 317 319 320 321 320 320 320 321 321 319 318 317 317 318 319 318 317 318 319 319 317 317 316 316 316 317 316 316 316 316 317 317 317 317 317 317 317 317 316 316 316 316 316 316 315 313 310 309 308 308 308 308 307 306 305 307 308 310 311 313 314 316 317 317 318 318 318 318 318 319 318 317 318 320 321 323 326 331 336 341
321 319 318 319 318 317 317 318 319 319 319 319 319 320 320 318 317 317 316 316 318 318 317 317 318 317 317 316 316 316 315 315 316 316 317 316 317 317 317 316 316 316 316 315 315 315 315 315 315 315 315 315 313 311 309 307 307 306 305 305 306 306 307 310 313 316 318 319 320 320 321 322 323 322 322 322 322 323 324 325 324 325 327 331 336 341
320 318 319 321 321 319 318 318 318 319 318 319 318 319 319 318 318 318 317 316 317 318 318 317 317 316 316 316 315 316 316 315 316 317 316 316 316 316 315 315 315 315 315 314 314 314 314 314 315 315 315 315 315 314 313 312 310 309 308 308 310 311 311 312 313 314 316 318 321 322 322 323 323 323 324 324 324 324 325 326 327 327 328 331 335 337
320 319 320 321 321 321 320 320 320 320 319 318 318 318 318 318 318 318 318 317 317 317 317 317 317 316 316 316 316 316 316 316 316 316 316 316 315 315 315 314 314 314 314 314 313 313 313 313 314 314 314 314 314 315 315 315 314 314 313 314 314 314 314 315 315 314 315 318 321 322 322 323 324 323 323 323 322 321 320 321 322 324 326 328 328 326
320 320 320 320 320 321 321 319 319 320 321 320 319 318 318 317 317 317 318 318 317 317 316 316 316 316 316 316 316 315 316 316 316 315 315 315 314 314 314 314 313 313 313 312 312 312 312 312 312 313 313 314 314 314 314 315 315 315 315 315 315 315 315 316 316 316 316 318 319 320 320 320 322 322 323 322 321 320 320 321 320 320 319 319 317 316
Wind_Speed
12 8 8 9 10 12 13 13 14 15 16 14 10 9 9 9 7 12 17 13 12 7 7 10 8 11 14 9 10 14 15 12 10 10 9 11 12 18 21 22 24 23 23 24 23 23 22 22 22 22 21 20 21 21 22 22 20 20 20 20 20 18 17 17 17 17 15 16 14 12 13 12 11 10 11 11 8 7 8 8 8 8 8 8 8 9
12 8 9 12 13 13 13 14 15 16 18 16 10 7 7 9 5 12 19 13 12 8 6 11 9 7 13 11 11 14 13 10 11 13 11 9 6 11 14 17 24 23 23 24 24 24 23 23 23 22 22 21 22 22 22 22 20 20 20 21 21 19 17 17 18 17 15 15 14 12 12 12 11 10 11 11 9 9 8 8 8 7 7 7 7 7
10 9 12 14 14 14 13 14 15 16 17 14 9 7 8 8 7 13 19 16 11 6 6 12 10 6 10 13 13 14 12 10 15 17 15 11 10 14 13 12 20 23 24 25 25 25 24 24 24 23 23 22 22 22 22 22 20 20 20 21 22 20 18 17 17 17 15 14 13 12 11 11 10 9 10 10 10 10 8 7 8 7 6 6 6 7
8 9 13 14 13 15 14 13 14 14 12 10 8 6 7 7 10 9 16 22 15 8 9 12 9 8 9 11 11 13 14 12 16 19 16 14 15 19 18 14 17 23 24 26 26 26 25 25 25 24 23 22 22 22 22 22 21 20 20 22 23 21 19 18 17 18 16 14 13 12 12 11 10 9 9 9 10 10 8 7 7 7 6 6 6 7
9 10 14 15 13 14 15 12 12 10 8 8 10 9 6 6 10 7 10 18 17 12 13 12 8 7 10 11 9 11 14 13 16 18 16 18 19 18 19 18 18 21 24 26 26 26 26 26 25 25 24 23 23 22 23 23 22 21 20 21 21 20 20 19 18 18 16 15 15 14 13 12 11 11 10 10 10 9 9 7 6 6 6 6 6 6
10 12 15 16 14 15 14 10 11 10 7 8 11 13 9 9 14 9 9 10 10 9 12 13 7 6 9 11 10 10 12 12 16 17 16 20 23 18 17 19 18 18 21 25 26 27 27 26 25 25 25 24 23 23 23 22 21 21 21 22 21 20 21 19 19 20 18 18 18 16 15 13 14 14 12 11 11 9 10 10 7 5 5 6 6 5
8 12 15 16 15 14 13 10 11 12 8 5 10 15 13 12 16 12 9 8 7 5 15 17 7 6 8 10 11 12 13 14 16 16 16 21 24 20 17 18 20 18 18 22 25 26 26 26 26 25 25 25 24 23 23 22 21 21 22 23 22 21 20 19 20 21 20 19 19 18 17 14 14 16 13 12 11 9 9 10 9 7 5 6 6 6
9 13 14 14 15 13 11 10 10 12 9 6 8 13 15 16 15 10 7 8 7 5 13 17 8 6 8 8 11 14 14 15 17 14 12 16 21 21 18 17 19 19 17 19 22 24 26 27 26 26 25 25 24 24 23 23 22 23 23 23 23 22 21 20 20 21 20 19 18 18 17 14 13 14 13 12 12 9 9 9 10 9 8 7 7 6
10 15 12 13 14 11 10 10 10 11 10 9 6 8 15 17 11 6 7 9 9 7 7 11 10 7 7 6 7 10 12 12 14 14 11 14 20 21 18 16 18 20 18 17 19 23 25 26 26 26 26 24 24 24 24 24 24 24 25 24 23 23 22 20 20 20 20 18 17 17 17 15 13 11 11 12 12 10 10 11 10 10 9 8 8 7
11 15 12 12 11 7 9 12 12 11 10 11 9 9 11 13 8 6 8 8 9 8 7 10 13 7 5 7 5 4 7 9 10 12 12 19 26 24 19 19 20 21 20 18 20 23 24 25 26 25 24 24 23 24 24 24 24 24 25 25 24 23 23 21 20 20 20 18 18 18 17 16 14 13 11 12 13 12 12 12 11 11 10 8 8 7
11 9 5 7 8 6 9 13 12 11 10 10 6 8 8 9 8 8 6 5 6 7 9 12 14 9 5 7 7 4 6 8 8 9 10 17 23 21 18 20 21 20 21 22 23 23 21 22 25 24 24 23 22 22 23 23 23 25 25 25 25 24 23 23 21 20 20 19 19 19 18 16 15 15 14 13 14 14 14 13 12 11 10 7 7 7
11 8 5 5 9 9 9 11 11 10 11 10 6 6 6 4 6 7 5 6 6 7 9 13 15 10 7 7 8 8 10 11 8 9 11 13 16 16 16 19 20 20 22 23 21 20 18 20 23 24 23 23 22 21 22 23 23 24 25 25 25 25 25 24 22 20 20 20 18 18 18 17 17 16 15 14 15 15 14 13 13 11 10 9 8 8
11 9 9 9 12 14 12 9 9 9 10 10 7 6 6 5 6 7 8 8 7 8 9 13 13 5 6 7 10 10 11 13 11 11 13 15 15 16 16 17 16 18 23 23 22 22 20 20 22 23 24 24 22 21 22 24 24 24 26 26 25 26 26 25 23 21 20 20 19 18 18 18 18 17 15 14 15 15 14 14 14 12 11 11 10 9
8 8 12 11 10 15 15 8 8 8 9 10 8 7 7 7 7 7 8 8 7 9 12 15 12 5 8 7 10 10 9 12 12 10 13 16 15 12 14 16 13 16 21 22 24 26 25 25 23 22 25 25 22 22 23 24 25 25 26 26 25 26 26 25 24 22 20 20 19 19 19 18 18 18 17 15 15 15 14 14 14 13 11 11 12 11
9 6 9 10 6 11 14 11 9 9 9 9 9 8 8 8 7 7 7 8 8 8 12 15 8 7 9 7 10 12 11 12 11 11 13 17 15 9 9 12 12 14 16 17 22 26 26 27 23 19 23 24 22 22 22 24 27 27 26 25 24 25 25 25 24 22 21 21 20 19 19 18 18 19 18 16 15 15 15 15 15 14 12 10 11 11
12 8 9 13 11 12 13 13 12 10 10 9 9 8 9 9 7 6 7 9 9 8 8 7 2 7 9 9 11 12 13 12 12 13 16 18 17 10 5 8 10 13 14 16 21 23 22 23 22 21 22 23 21 20 21 22 25 28 28 26 23 23 24 23 23 22 21 21 21 20 19 19 19 19 19 18 17 17 16 15 15 15 13 11 10 11
9 9 11 16 10 9 14 15 9 7 6 6 9 10 8 9 9 7 6 9 9 9 6 6 9 9 10 10 11 12 13 12 11 14 15 18 20 14 8 7 8 11 12 15 19 19 20 24 24 23 22 22 22 22 23 21 19 23 27 27 24 23 23 21 21 21 21 21 21 20 19 19 19 19 20 20 19 18 18 17 16 16 16 16 13 11
6 4 10 14 9 7 15 18 10 8 8 5 8 10 9 10 11 6 5 8 9 9 6 11 15 12 10 8 10 14 15 12 11 11 12 13 16 14 12 10 4 10 12 11 14 16 19 23 23 21 20 20 20 23 25 24 21 22 24 26 24 22 22 21 20 20 20 21 21 20 20 20 19 20 20 19 19 18 18 18 18 17 16 17 16 13
7 1 8 9 8 7 10 13 10 12 15 10 5 5 6 8 8 6 5 6 7 8 6 12 16 12 8 9 13 15 14 14 12 11 10 10 11 10 11 10 8 11 16 10 12 14 15 18 19 19 20 19 19 21 23 24 25 24 25 26 23 21 23 21 19 19 20 20 20 20 20 19 20 20 20 19 19 19 18 18 19 18 17 17 16 15
7 3 5 6 8 8 7 8 7 8 12 11 7 6 6 6 6 7 6 5 5 7 6 7 8 6 5 7 13 14 13 13 13 11 10 10 10 9 8 8 9 11 15 13 14 12 10 14 18 20 22 21 20 20 20 21 23 23 24 27 24 21 23 22 20 20 20 20 21 20 20 20 20 20 20 20 20 19 19 18 18 18 18 18 17 17
7 4 4 5 7 8 6 7 9 9 9 8 7 6 7 6 6 7 7 7 6 5 4 5 5 3 3 4 11 14 12 12 12 12 11 11 12 9 6 7 8 10 14 14 15 14 8 5 12 20 24 21 18 18 18 19 22 22 23 25 24 22 21 21 21 21 20 21 23 22 22 22 22 21 20 21 21 21 20 20 19 18 18 18 17 17
4 3 1 4 7 7 8 11 12 10 9 9 8 8 8 8 7 7 7 9 8 6 4 4 7 4 2 5 10 12 12 12 13 13 12 12 13 10 7 6 5 8 13 14 14 16 16 13 8 11 17 18 14 13 15 18 20 22 22 22 22 21 20 19 20 22 22 23 23 23 23 23 23 23 22 21 21 22 21 21 21 20 19 19 18 18
6 4 3 2 4 4 7 12 10 5 6 7 7 8 8 8 8 8 8 7 9 9 2 5 7 5 3 5 9 11 13 14 15 15 14 14 14 12 10 8 6 8 11 13 13 14 14 14 14 12 8 10 10 9 13 16 18 19 20 22 22 21 19 18 20 24 25 24 22 22 24 24 24 24 24 22 21 21 21 21 21 22 21 20 19 19
8 4 4 3 2 1 4 6 4 5 5 6 7 8 9 10 9 8 5 1 4 10 5 5 5 5 4 6 10 13 15 16 15 14 14 14 13 12 12 12 10 10 13 13 14 14 13 12 12 14 15 12 9 10 13 15 17 18 19 21 21 20 19 19 21 23 25 24 22 22 24 25 25 24 24 24 22 21 20 20 20 21 22 20 19 19
6 2 3 2 3 5 5 3 3 7 6 6 8 8 10 11 8 7 7 3 3 6 2 5 4 5 6 7 10 13 14 15 15 14 14 14 13 12 13 14 14 13 12 12 13 13 14 16 15 14 17 17 13 12 14 15 17 18 17 19 20 19 18 18 19 21 23 22 21 22 23 23 24 25 26 26 23 21 20 20 20 20 21 21 19 19
5 3 2 4 4 4 3 2 3 5 7 7 9 11 13 13 8 8 6 2 5 5 4 7 6 7 8 9 10 11 12 13 14 13 13 13 13 12 13 14 15 15 14 14 14 15 16 18 19 18 16 17 16 14 14 14 15 16 15 17 19 17 14 14 15 17 18 19 20 21 24 24 24 26 27 25 24 22 20 19 19 19 20 20 20 19
4 3 2 1 2 3 2 3 7 6 6 10 10 12 13 9 7 7 5 4 3 1 3 8 13 14 12 11 11 12 12 12 13 14 14 14 13 12 13 13 14 15 16 16 16 17 18 19 21 21 18 16 15 15 15 14 14 15 15 16 17 17 15 14 15 15 16 18 19 22 25 27 26 26 25 23 22 22 21 20 19 19 20 20 20 20
4 4 5 4 4 5 5 5 8 9 7 9 15 16 12 7 9 10 7 4 1 3 3 8 15 16 15 14 14 14 12 11 13 14 15 16 15 14 14 15 14 15 16 17 18 18 19 19 20 20 19 18 15 12 12 12 12 14 16 16 17 17 16 16 16 14 13 15 18 22 26 25 23 22 22 21 21 21 22 21 20 19 20 20 20 20
5 5 5 5 8 8 5 8 8 8 12 8 10 12 7 6 11 11 9 11 9 1 7 11 12 12 14 15 15 14 14 13 12 12 14 16 14 13 15 15 15 16 16 17 18 19 19 19 19 19 19 19 16 13 11 10 10 11 13 14 14 14 13 14 15 14 13 13 13 16 20 18 15 15 16 18 20 19 20 23 23 21 21 21 20 20
2 3 4 5 6 6 5 8 8 7 11 9 1 2 3 5 10 11 12 15 9 6 14 15 13 11 11 13 14 15 16 15 13 11 14 16 13 11 13 15 15 16 16 17 18 18 18 18 19 20 20 19 17 14 12 10 8 7 9 9 9 11 11 12 14 13 12 12 11 11 11 11 11 12 14 15 16 17 18 23 25 23 23 21 20 20
2 1 3 6 7 4 4 5 7 8 8 9 4 2 2 7 8 7 8 10 4 7 12 13 13 10 8 13 16 15 16 15 12 11 12 14 12 10 12 14 14 15 15 16 17 17 18 18 18 19 19 19 19 16 14 13 9 5 6 6 7 9 11 11 12 11 9 9 10 11 11 10 10 12 13 12 14 16 17 20 22 23 23 20 18 21
4 2 1 2 5 6 5 5 7 8 6 10 10 5 5 8 7 5 4 5 5 6 11 11 10 7 9 16 18 15 15 14 13 12 12 11 10 10 11 12 13 14 15 15 16 16 16 17 17 17 17 17 17 17 16 15 13 10 5 3 4 6 9 9 7 8 9 8 7 8 10 12 12 12 12 9 10 14 16 18 20 22 23 20 18 20
4 4 2 3 4 7 8 7 5 5 5 8 8 6 8 10 8 7 4 2 6 4 8 10 8 8 12 16 15 14 14 14 13 13 11 9 8 9 10 11 12 13 14 14 15 15 15 16 16 16 16 16 15 16 15 14 13 13 11 7 4 1 4 6 5 6 8 8 6 5 7 9 11 12 12 10 10 14 15 16 18 19 21 21 20 22
3 3 4 4 3 6 11 9 5 4 6 4 3 7 6 7 10 9 4 2 5 3 8 10 10 11 14 15 14 14 15 15 15 15 12 10 7 7 9 10 11 12 13 13 14 14 15 15 15 15 15 14 13 13 14 14 13 12 12 10 9 9 6 3 1 2 4 5 5 6 6 7 8 10 11 12 12 13 13 13 14 15 16 19 21 24
3 2 4 4 4 6 7 7 7 7 4 2 7 9 9 5 1 1 4 4 3 7 15 17 14 14 14 15 16 18 19 18 17 15 11 9 6 6 7 8 10 10 11 12 12 12 13 14 15 15 14 13 12 11 12 14 12 11 11 10 11 13 13 11 10 7 5 4 5 5 5 5 6 6 7 11 12 13 14 14 15 16 17 18 21 23
4 4 4 4 5 5 4 6 6 3 1 4 5 5 6 6 4 5 5 3 3 7 12 16 15 15 15 16 18 20 20 18 15 13 10 7 5 6 7 7 8 9 10 11 11 11 11 12 13 13 13 12 10 9 12 13 11 10 10 10 12 15 14 11 10 11 12 8 5 4 4 3 4 4 4 9 10 12 13 14 15 16 18 19 21 23
4 4 3 3 4 5 7 7 4 1 1 1 2 2 3 2 2 1 1 2 4 5 9 13 13 14 15 16 19 21 20 16 11 8 9 7 5 6 7 7 7 8 9 9 9 10 10 10 12 12 11 11 8 9 12 13 11 10 9 9 11 13 12 10 7 10 14 13 10 9 9 7 7 7 5 6 9 11 13 14 14 14 15 17 19 22
2 3 3 3 3 4 6 7 5 4 5 4 5 5 3 4 5 4 1 3 3 6 11 13 12 14 15 15 17 19 18 13 8 7 11 10 6 6 7 7 7 8 8 8 8 9 9 10 11 10 10 9 8 10 12 12 11 9 8 8 9 10 10 8 7 11 14 15 14 13 11 8 8 9 9 7 4 7 11 14 14 14 14 15 18 20
3 3 3 4 5 5 5 6 6 5 2 2 6 7 5 5 7 4 3 6 3 7 12 13 13 16 18 18 17 15 12 8 5 10 15 12 8 7 6 6 6 7 7 8 8 8 9 11 10 9 9 8 8 11 12 10 9 9 7 9 9 9 8 7 9 13 14 15 15 14 12 10 8 8 10 10 6 5 9 11 13 15 16 16 17 19
4 4 4 5 6 6 5 6 5 1 3 5 6 6 5 4 3 1 5 6 8 10 11 11 12 13 13 14 14 10 5 1 3 11 16 13 9 8 5 4 5 5 6 7 8 8 9 10 9 8 9 10 10 11 10 8 8 8 9 12 11 9 7 7 9 14 16 16 15 15 13 13 11 9 9 9 9 7 7 8 11 14 17 17 18 19
4 4 5 6 7 7 6 7 4 2 5 5 5 6 5 4 4 5 2 2 9 11 9 9 11 10 8 7 7 6 8 8 7 10 12 10 8 7 4 4 4 5 5 6 9 9 8 7 8 8 9 10 11 11 9 9 9 9 11 12 11 9 10 12 15 17 18 18 17 15 15 15 14 12 10 9 9 9 9 8 9 11 13 15 18 19
4 4 5 6 7 6 5 6 4 2 5 6 6 5 4 3 3 3 3 4 5 9 8 6 8 9 8 7 7 10 12 11 7 6 8 6 5 4 3 3 4 4 5 7 8 8 7 7 8 8 9 10 10 10 9 10 10 12 14 13 12 11 12 14 18 20 21 21 20 18 17 17 16 16 15 13 12 12 12 11 11 11 11 13 16 17
3 4 5 5 5 5 6 6 4 1 4 8 7 3 2 2 2 5 8 7 8 8 5 5 4 8 11 9 7 7 9 8 6 5 4 3 4 3 2 3 4 5 6 7 8 8 9 9 9 10 10 10 11 10 10 11 11 13 14 13 12 12 12 14 18 21 23 24 23 21 20 19 18 18 17 17 16 16 16 15 15 14 15 16 17 18
4 5 5 3 3 5 5 4 2 1 6 8 5 2 4 5 6 7 8 9 8 6 4 7 8 8 11 9 6 4 5 5 5 4 2 1 2 2 2 4 5 6 7 7 8 9 10 10 11 12 12 11 12 12 12 12 12 12 12 11 13 15 16 18 19 20 22 23 23 24 24 23 21 19 19 19 19 18 18 18 18 19 19 19 20 20
3 3 4 3 3 4 3 0 1 5 8 7 4 5 9 9 8 7 7 9 8 6 5 5 6 8 9 8 6 4 3 3 3 2 2 1 1 2 3 4 4 5 6 7 8 9 10 12 13 14 13 13 13 13 13 13 13 13 13 14 16 18 19 19 19 19 21 23 24 25 26 26 25 23 22 21 20 19 19 20 21 21 21 22 22 21
5 5 4 4 4 5 4 3 6 7 7 7 7 8 9 8 7 7 7 8 9 7 5 5 7 8 7 6 6 5 4 4 3 2 2 1 1 1 3 3 4 5 6 7 8 10 11 12 13 14 14 14 13 13 13 13 14 15 16 17 18 19 19 20 20 21 21 22 23 25 26 26 25 24 23 22 22 23 22 21 22 22 21 20 20 20
5 8 7 5 5 5 4 5 8 8 9 9 9 9 9 8 8 8 6 6 8 9 7 6 8 9 8 6 5 4 4 4 4 3 1 1 1 2 2 3 4 6 7 8 9 10 12 13 13 14 15 16 16 16 15 15 16 16 17 18 19 19 20 20 21 21 21 20 21 22 22 21 20 19 19 20 21 22 21 18 18 19 19 18 18 18
6 10 8 6 8 7 4 3 5 7 8 9 10 10 10 9 9 7 7 6 7 9 9 8 8 9 8 7 6 5 4 4 4 3 3 2 1 1 2 3 4 6 7 8 10 11 12 12 13 15 16 17 18 19 18 18 18 18 18 18 19 19 21 21 21 21 21 19 18 18 17 17 16 16 16 17 17 17 17 17 16 17 18 17 15 15
2 7 6 5 7 8 6 4 4 5 7 9 11 11 10 10 9 7 6 7 8 9 10 9 8 8 7 6 7 6 5 4 3 3 3 2 2 2 4 4 5 6 7 9 10 10 11 12 13 15 16 17 18 19 19 19 20 20 19 19 18 19 20 21 21 22 22 21 18 17 16 15 15 15 15 14 15 16 17 17 16 18 19 19 19 20
4 3 2 5 6 5 2 4 6 4 4 8 10 11 11 11 11 11 10 10 10 11 11 9 8 8 7 6 6 6 5 4 3 3 3 3 4 4 5 5 6 7 8 8 9 10 11 12 14 15 16 17 17 18 18 19 19 19 19 18 18 19 19 20 21 22 23 21 19 17 16 16 16 16 17 17 19 21 22 23 22 23 25 27 28 28
6 4 3 3 6 5 3 4 7 8 6 4 4 7 11 11 12 14 16 17 14 12 12 12 11 9 8 7 6 6 6 6 5 4 4 5 5 5 6 7 7 8 9 10 10 11 12 13 14 15 16 16 17 17 17 17 17 18 18 18 18 19 20 20 21 22 22 22 20 20 20 20 19 20 20 21 22 23 25 27 29 29 30 32 34 36
Wind_Direction
199 208 208 215 219 214 213 221 237 246 251 253 230 215 214 215 214 161 141 146 159 152 159 151 150 151 134 153 171 150 162 168 155 164 194 225 194 169 177 172 169 173 169 170 171 167 167 166 165 164 163 164 163 165 166 162 167 167 163 169 168 169 178 174 168 171 170 165 158 164 168 158 158 163 155 155 158 152 147 143 140 139 137 138 145 151
203 219 216 213 223 223 215 218 233 245 253 263 265 271 247 220 204 138 134 147 160 155 165 147 134 147 139 148 172 161 161 173 169 158 174 212 183 173 194 178 172 175 170 172 172 169 169 167 168 166 166 167 165 168 168 165 169 169 168 170 166 172 180 175 174 173 169 170 166 168 170 164 170 166 155 158 158 154 154 146 139 136 135 133 137 143
203 225 223 213 220 230 228 220 225 239 247 259 264 276 271 218 161 131 139 153 170 170 159 149 144 159 151 151 167 171 167 174 180 172 170 183 176 184 206 193 178 176 173 176 174 172 172 171 170 168 170 170 167 170 169 169 172 169 173 174 167 175 179 174 178 175 173 174 167 168 170 167 177 172 161 162 157 157 165 160 146 137 133 133 137 141
201 220 226 220 215 224 234 223 221 235 238 256 258 253 271 211 170 163 153 153 165 173 162 164 156 150 155 153 162 175 172 166 176 179 172 174 180 185 194 197 188 183 177 176 177 175 174 174 173 171 173 172 170 172 171 171 173 170 179 182 173 177 178 173 178 176 176 174 166 171 171 168 177 175 168 164 159 162 172 171 154 143 143 142 140 143
215 213 216 225 220 216 233 226 216 232 227 236 247 243 255 213 205 210 154 155 170 169 163 173 164 145 154 159 166 177 172 165 171 177 177 178 179 182 195 201 197 192 182 178 180 178 177 177 175 174 175 175 174 175 175 175 175 173 180 185 178 180 179 175 178 175 174 174 171 172 172 173 177 175 175 170 168 172 169 172 172 156 151 149 143 145
223 213 204 219 225 214 227 227 211 225 226 221 232 239 230 207 226 219 149 168 191 165 165 180 168 146 163 163 166 171 166 166 171 173 178 185 183 183 198 202 198 197 187 182 183 179 180 180 176 176 177 178 177 178 179 178 178 177 182 186 181 182 183 181 180 175 176 180 177 175 174 181 178 172 182 179 173 180 170 168 184 183 161 155 158 161
226 219 205 209 220 214 219 228 215 212 226 223 210 229 237 220 228 220 167 188 226 174 175 190 178 137 165 161 164 177 166 163 176 174 172 183 186 187 199 198 191 195 191 185 185 184 184 182 179 178 179 181 180 180 181 180 181 181 186 190 187 186 186 187 186 178 181 186 183 181 177 185 185 174 184 184 172 181 175 167 184 197 185 169 168 172
224 226 214 201 214 213 210 226 213 200 218 237 197 205 229 239 240 231 198 207 239 222 183 193 192 141 151 151 167 181 168 166 177 164 154 172 180 185 196 194 185 188 191 187 187 188 187 184 184 182 181 185 183 181 183 182 184 186 191 194 191 190 189 191 192 184 187 190 186 188 181 185 192 182 187 185 171 180 179 171 185 193 192 189 183 181
215 229 214 192 217 215 199 223 210 192 214 237 244 224 219 233 255 261 240 221 222 241 206 190 191 161 140 133 155 166 158 172 170 144 139 168 183 195 195 185 184 187 188 189 191 193 191 186 186 186 185 187 185 183 184 183 185 189 195 196 192 192 191 193 195 191 194 192 189 191 183 185 191 185 197 189 174 185 187 180 188 190 192 199 195 191
205 230 215 193 224 214 185 223 217 193 212 229 271 285 218 204 227 245 244 228 212 238 242 196 192 185 142 140 146 140 155 178 163 144 157 171 183 197 188 177 187 189 188 190 190 192 193 190 188 188 188 189 188 186 185 184 184 187 194 197 194 194 193 194 197 196 198 196 194 192 184 186 186 182 201 196 180 192 193 184 191 195 198 204 202 197
202 203 191 191 230 225 193 221 223 200 211 222 249 270 216 183 206 224 231 236 220 232 240 216 197 174 137 157 172 164 158 168 159 152 165 170 178 187 182 178 184 185 187 192 191 191 194 193 189 188 190 192 191 188 186 185 184 184 191 196 196 195 194 197 198 196 198 200 199 196 187 186 185 186 198 196 189 200 197 186 192 202 200 199 203 202
229 175 140 202 227 239 228 222 220 207 211 216 211 227 219 183 212 221 215 232 233 228 231 225 209 177 139 154 168 162 155 157 165 161 159 170 176 177 180 181 179 181 186 190 192 193 194 191 187 187 191 192 191 187 182 183 183 184 190 195 195 195 194 198 202 198 198 201 202 201 194 190 189 190 196 196 196 204 204 193 195 204 197 189 196 204
234 188 167 197 212 225 237 222 205 205 214 220 205 198 208 190 201 218 213 216 230 238 235 229 224 191 101 123 146 153 151 145 152 163 162 167 173 176 180 175 172 183 190 193 193 189 187 188 186 189 192 190 191 186 180 183 183 182 191 196 197 197 195 198 205 203 199 202 204 204 203 200 196 192 194 199 202 207 208 201 200 204 197 190 193 205
201 191 189 189 196 215 232 228 195 191 203 219 209 186 204 204 194 211 218 217 224 237 248 245 231 152 104 124 139 140 135 127 132 143 142 148 159 171 175 172 176 186 190 197 199 193 190 189 186 188 192 192 195 194 188 189 187 183 191 198 199 198 196 198 205 207 203 205 207 206 206 207 204 198 194 198 205 210 209 206 208 209 203 199 199 206
193 193 199 191 185 204 225 244 228 202 189 211 221 197 206 219 202 203 214 216 218 222 238 246 232 138 128 138 133 126 121 120 128 129 117 122 135 145 160 170 182 186 185 194 200 198 195 192 188 189 192 193 197 199 192 192 194 189 190 197 199 197 196 199 205 206 205 206 208 208 208 209 210 207 201 198 202 209 209 207 211 212 207 210 212 208
211 203 183 190 203 190 205 245 247 215 191 198 220 213 208 219 215 212 216 216 217 217 221 222 142 104 120 132 132 127 122 121 126 129 117 108 112 121 158 175 177 179 183 193 197 196 195 193 193 192 189 186 190 194 190 193 198 194 192 196 197 197 197 199 203 203 203 205 206 208 209 210 211 211 210 205 201 206 209 205 209 214 204 202 220 220
230 221 171 174 196 185 202 236 238 204 206 201 212 219 222 236 242 236 226 222 218 217 202 135 109 118 128 135 142 135 127 122 118 122 122 118 118 121 131 151 180 189 187 196 196 190 189 192 198 199 194 189 190 194 194 197 200 195 195 197 194 197 199 198 202 203 203 205 206 208 210 211 212 212 213 212 207 206 206 202 205 213 206 197 206 217
290 243 144 154 178 183 210 232 228 210 229 228 207 210 221 245 257 263 246 224 213 221 196 131 133 148 146 143 152 145 132 123 119 118 121 127 126 124 117 99 135 188 188 205 198 187 190 193 197 202 201 200 199 199 200 203 204 200 198 198 196 198 201 200 203 205 206 207 208 211 212 211 213 214 213 213 213 209 206 205 204 206 212 206 198 201
307 255 128 155 188 175 199 229 233 221 222 230 240 232 233 239 239 243 257 240 212 223 203 138 143 155 147 150 156 150 138 130 125 117 113 115 110 117 119 74 59 148 160 168 169 178 201 201 199 203 206 205 201 202 203 201 203 204 202 201 202 201 202 204 205 206 209 210 209 213 216 215 214 214 211 209 213 212 206 209 209 204 210 214 204 198
300 247 156 185 200 177 182 212 227 220 218 238 282 295 265 254 235 219 223 241 240 230 200 148 148 138 108 142 148 137 130 130 120 102 98 100 82 80 104 75 55 113 135 132 132 149 196 205 205 210 212 207 201 207 209 198 199 202 200 202 205 202 201 205 206 207 211 212 211 212 215 218 217 216 212 206 210 214 208 210 214 209 209 212 209 205
284 250 172 185 197 181 178 204 217 212 206 223 247 248 232 230 244 240 220 218 240 248 203 149 138 105 61 113 129 119 114 117 112 101 96 95 83 73 82 75 62 92 112 107 96 90 94 154 198 207 206 199 197 209 205 193 201 207 202 201 203 202 202 205 207 208 212 217 218 216 215 217 216 214 214 210 209 212 210 210 213 212 212 213 211 210
294 281 136 174 196 196 195 201 210 220 220 218 224 228 220 211 222 238 230 216 219 243 251 143 133 122 89 119 125 119 114 114 114 111 108 104 101 101 103 96 86 98 109 101 79 67 61 63 105 171 191 189 190 203 189 181 196 206 206 202 201 203 204 205 208 211 216 221 223 222 220 221 217 211 213 214 211 210 211 212 210 209 212 214 214 211
357 304 289 239 213 209 187 180 186 230 258 255 256 242 224 217 222 230 228 221 223 231 240 95 121 131 131 135 126 116 111 113 117 115 113 108 101 99 101 98 83 65 74 81 78 72 60 56 73 88 120 162 177 182 171 175 190 199 204 205 207 210 210 210 213 214 218 221 221 221 221 225 224 215 211 214 214 210 210 212 211 210 209 211 216 215
344 266 255 312 318 160 131 138 182 245 261 267 257 248 241 223 217 247 263 284 251 234 194 99 115 145 157 142 121 116 113 111 116 115 110 105 101 101 101 96 83 67 65 71 77 79 70 65 73 73 76 99 136 155 159 174 190 198 206 209 212 217 216 217 217 215 218 218 217 219 221 224 224 216 211 212 215 214 211 212 213 213 212 209 213 219
327 255 221 277 248 201 169 131 218 229 238 254 231 232 258 242 235 296 318 29 312 267 137 93 118 141 149 146 132 130 125 116 118 121 117 114 113 111 105 98 95 94 93 92 89 84 77 75 76 74 75 81 95 130 153 171 186 196 207 210 211 215 215 214 214 214 217 215 213 218 222 225 224 218 214 211 211 213 213 213 214 216 217 213 211 217
312 318 282 250 238 229 202 207 251 225 210 232 233 223 232 240 262 310 324 319 273 276 79 96 126 134 143 153 146 138 129 119 119 119 115 114 116 114 111 106 102 99 99 99 94 85 80 81 80 75 76 81 84 101 128 155 177 186 195 202 207 210 207 206 211 216 216 210 209 219 226 227 224 220 219 214 209 211 213 215 216 216 219 218 214 215
305 314 310 280 292 323 336 284 295 292 211 208 233 236 230 245 281 283 289 317 308 313 81 116 136 142 152 160 153 138 131 129 126 125 124 119 113 111 111 110 106 100 94 90 86 82 82 87 86 78 76 84 88 92 102 122 152 168 176 185 192 198 200 202 209 216 219 217 219 225 228 227 221 218 219 216 211 211 213 214 217 218 220 220 218 217
309 262 216 195 239 284 331 325 309 317 296 232 222 229 233 254 274 265 262 272 317 40 74 130 140 148 158 162 158 144 137 142 137 133 133 124 116 116 113 108 104 100 93 86 82 79 78 79 79 77 75 80 95 107 106 111 130 150 167 173 175 183 194 201 206 212 223 227 228 231 231 229 225 219 218 219 217 216 217 215 213 218 223 224 222 219
307 269 228 210 225 241 295 313 297 307 318 293 222 219 233 239 248 258 260 260 272 4 129 150 153 156 156 156 155 147 143 143 132 118 111 106 108 117 113 103 97 95 91 86 81 76 75 73 71 73 73 76 90 110 116 114 120 138 159 172 176 177 184 196 205 214 227 233 238 239 234 237 242 230 221 222 216 212 216 215 213 217 220 224 227 224
299 303 339 314 268 236 253 289 288 295 319 328 170 146 341 283 255 252 248 256 266 116 134 157 157 146 150 150 146 145 143 137 130 125 113 104 106 113 106 98 93 90 86 84 83 78 75 73 69 69 71 71 78 92 105 109 115 138 158 175 186 183 186 197 204 211 224 241 261 262 242 244 258 245 236 235 223 213 215 216 218 220 216 217 226 227
332 350 13 326 306 268 226 260 276 278 301 303 265 166 290 285 279 268 258 264 259 124 137 157 146 129 144 145 135 134 136 133 132 132 117 109 111 107 96 93 91 88 84 80 81 79 75 73 69 67 67 66 67 73 83 86 82 111 170 201 213 208 212 220 221 225 238 253 268 272 260 258 263 254 252 254 239 230 227 224 224 223 218 216 219 220
301 263 163 254 278 262 221 207 244 261 281 280 267 232 229 258 268 256 249 274 259 165 145 148 142 135 152 145 130 122 127 131 129 122 112 111 117 108 97 94 89 87 86 79 76 75 72 69 67 65 64 64 65 66 70 71 67 69 96 172 219 227 225 220 221 237 247 249 256 271 270 262 257 257 262 266 250 237 232 229 228 225 223 225 221 217
295 300 279 219 239 261 247 219 227 261 260 260 266 256 234 231 241 243 216 270 289 233 159 154 153 146 147 143 135 132 137 139 134 127 116 106 104 98 95 96 90 85 83 80 75 71 68 65 62 62 61 60 61 62 62 64 62 59 62 61 47 25 208 198 197 222 234 239 247 263 265 256 254 257 263 269 255 237 232 235 237 233 229 229 227 225
309 299 282 266 248 258 253 237 227 255 248 241 2 341 288 227 226 234 185 95 336 2 103 119 137 146 146 146 149 148 143 141 139 135 130 126 117 96 85 83 83 82 77 74 72 69 66 62 57 59 59 57 58 59 59 60 56 52 55 50 37 45 66 70 14 266 244 253 263 265 262 263 270 267 256 252 246 239 242 247 245 242 238 233 233 235
316 276 259 264 260 260 257 232 223 243 249 80 47 11 360 4 296 194 99 79 37 83 104 117 137 153 153 150 147 139 130 129 131 131 133 142 138 114 95 79 74 76 72 68 66 65 64 56 50 53 55 53 55 50 49 56 54 49 52 44 36 51 60 42 18 8 356 325 292 288 286 281 292 288 251 239 238 240 248 251 247 246 246 243 241 242
317 302 271 255 246 252 244 216 219 250 360 67 54 17 4 16 51 90 97 83 82 116 128 135 146 160 161 154 143 133 131 133 135 135 136 141 136 125 119 95 77 71 67 65 61 60 61 49 42 46 48 47 47 32 31 44 48 47 52 42 34 47 56 48 28 14 11 10 356 348 350 339 348 349 278 245 239 237 239 243 244 245 248 248 246 246
316 310 308 282 240 239 240 226 206 192 250 193 109 39 2 13 56 86 198 123 101 134 145 145 156 166 165 157 146 142 143 140 139 151 156 153 143 120 111 101 89 76 66 63 59 59 55 39 34 39 40 40 34 15 20 29 29 37 52 46 36 39 45 48 35 11 11 14 12 9 6 4 15 12 333 274 250 239 236 238 241 241 246 253 253 250
294 293 321 309 257 246 257 248 222 223 243 217 152 121 64 35 31 16 220 167 128 144 152 157 162 155 150 155 156 157 158 150 142 164 168 163 156 135 115 101 91 79 66 57 55 54 37 21 28 33 29 30 19 6 15 17 11 23 37 33 35 40 37 30 9 357 4 9 9 14 14 7 6 6 358 342 280 233 232 240 246 245 245 250 254 252
275 275 284 280 268 263 266 254 238 239 284 70 107 109 94 65 49 36 224 209 175 154 164 171 167 155 155 159 161 170 191 203 171 154 156 154 143 132 115 88 74 66 58 51 46 36 16 12 25 27 20 19 3 359 9 8 8 20 10 355 10 29 32 21 352 343 349 357 2 8 11 3 352 343 342 341 323 252 231 236 244 247 246 248 253 255
243 246 235 240 253 255 255 253 248 266 68 89 99 96 91 84 86 208 233 197 160 161 172 177 175 171 166 157 153 162 188 252 95 125 139 143 131 118 105 82 68 52 44 38 23 13 10 14 19 15 9 3 354 358 5 2 4 4 341 336 350 6 11 358 337 331 333 339 348 352 352 352 349 338 330 331 324 297 265 251 249 248 247 248 252 255
243 243 238 245 244 235 240 250 247 88 97 122 119 104 105 118 167 204 231 139 151 158 163 176 180 175 157 143 143 122 99 89 80 94 113 122 117 107 93 76 67 47 33 20 10 11 15 14 10 5 1 356 354 357 355 351 353 343 329 333 343 345 337 326 321 322 323 325 332 336 334 335 336 334 331 328 322 309 292 281 271 260 255 255 256 257
251 243 234 243 249 245 249 250 233 131 123 132 112 108 151 191 193 160 105 74 117 135 140 164 174 161 144 138 130 101 97 112 118 93 93 96 89 90 73 47 45 33 19 14 14 16 13 7 1 356 352 351 352 351 346 341 332 321 323 331 334 331 328 321 319 319 318 318 321 322 322 323 324 325 326 326 324 318 309 300 291 283 279 276 273 272
270 271 250 237 243 252 249 248 255 222 150 148 135 130 204 229 117 121 125 106 92 106 103 47 67 145 159 163 148 103 88 107 115 89 77 68 54 60 55 33 27 18 10 10 9 3 358 354 348 343 346 347 344 341 339 337 330 326 331 335 330 325 323 319 317 317 317 318 319 317 316 317 317 316 315 316 318 317 312 306 299 293 290 289 291 292
247 250 262 251 246 256 247 243 266 133 138 146 152 117 94 105 111 122 131 116 98 114 116 47 49 112 147 160 164 129 99 108 106 85 84 70 34 40 48 34 22 12 5 3 360 350 344 340 332 331 337 339 335 331 330 333 337 339 339 331 318 315 317 319 320 320 318 318 317 316 314 312 311 309 306 305 307 308 307 305 303 300 299 299 299 300
232 251 312 319 285 289 302 320 145 154 150 145 131 102 103 115 121 117 126 130 123 134 146 116 92 105 120 137 150 142 131 133 117 109 126 121 75 42 26 13 13 11 2 359 354 343 337 335 331 327 327 326 327 329 329 329 329 327 324 318 314 317 320 321 320 318 316 315 315 315 314 312 310 309 306 303 301 299 299 298 297 298 300 302 303 304
226 247 294 308 287 286 271 196 156 156 160 149 134 125 125 133 135 126 132 144 146 148 147 138 140 140 134 139 150 158 165 156 144 155 154 112 57 14 7 360 3 3 357 355 350 341 337 336 332 329 325 320 319 322 321 318 315 312 311 311 314 319 321 318 317 316 316 316 316 316 316 316 315 314 311 307 303 301 300 300 299 300 303 305 307 307
263 276 268 248 252 266 243 191 169 174 181 170 156 150 147 149 152 154 157 150 145 153 151 132 134 143 145 149 158 164 165 161 163 177 188 269 302 329 352 349 349 350 346 345 342 338 337 335 331 330 326 320 317 314 310 308 307 307 306 306 310 315 316 317 320 320 318 318 317 316 316 316 314 312 308 305 305 304 302 300 299 300 302 305 307 306
334 313 288 244 240 248 239 200 181 187 195 190 178 172 171 171 165 162 170 170 159 158 157 149 144 146 150 162 173 178 181 183 186 194 212 236 255 303 337 335 338 337 332 332 332 332 332 330 327 326 324 320 317 314 310 307 304 302 302 304 307 311 312 314 316 316 316 317 315 313 311 308 306 304 300 297 296 294 290 287 285 283 282 284 285 284
317 298 308 315 282 261 252 255 232 199 203 210 204 196 191 185 177 171 177 183 176 168 164 162 163 167 172 174 177 183 193 197 193 198 220 245 270 295 308 316 321 321 322 325 326 326 326 325 323 321 319 318 318 316 315 313 310 308 308 309 311 312 311 311 311 309 311 314 314 312 309 305 301 299 294 289 285 281 278 278 277 272 267 261 256 255
247 248 330 339 294 249 232 325 317 292 232 219 216 216 212 195 187 190 192 191 190 186 182 179 175 175 179 178 178 183 189 199 213 223 238 256 272 285 297 305 311 314 317 317 318 319 320 318 318 317 316 316 315 315 315 315 314 316 316 315 315 315 313 312 310 308 308 311 312 311 308 305 302 296 289 284 281 278 276 274 269 263 261 260 259 261
257 223 193 243 262 260 270 314 326 324 306 267 226 228 226 219 218 212 198 189 188 191 195 198 195 190 188 188 191 194 195 203 217 232 251 265 271 279 290 299 305 309 312 314 314 315 314 313 314 314 314 314 313 313 312 312 313 314 314 314 314 313 311 311 309 307 307 308 307 303 300 299 298 296 292 290 288 286 285 283 280 276 274 273 275 278